owner,sensor,date,latitude,longitude,vertical_datum,mass_concentration_of_oxygen_in_sea_water,qcFlag 
DISL,ioos:station:DISL:DISL:1,2010-10-01T00:00:00Z,30.2513,-88.0778,6.32,7.58,1111122 
DISL,ioos:station:DISL:DISL:1,2010-10-01T00:30:00Z,30.2513,-88.0778,6.429,7.71,1111122 
DISL,ioos:station:DISL:DISL:1,2010-10-01T01:00:00Z,30.2513,-88.0778,6.516,7.56,1111122 
DISL,ioos:station:DISL:DISL:1,2010-10-01T01:30:00Z,30.2513,-88.0778,6.558,7.43,1111122 
DISL,ioos:station:DISL:DISL:1,2010-10-01T02:00:00Z,30.2513,-88.0778,6.622,7.39,1111122 
DISL,ioos:station:DISL:DISL:1,2010-10-01T02:30:00Z,30.2513,-88.0778,6.68,7.32,1111122 
DISL,ioos:station:DISL:DISL:1,2010-10-01T03:00:00Z,30.2513,-88.0778,6.765,7.17,1111122 
DISL,ioos:station:DISL:DISL:1,2010-10-01T03:30:00Z,30.2513,-88.0778,6.844,6.9,1111122 
DISL,ioos:station:DISL:DISL:1,2010-10-01T04:00:00Z,30.2513,-88.0778,6.94,6.93,1111122 
DISL,ioos:station:DISL:DISL:1,2010-10-01T04:30:00Z,30.2513,-88.0778,6.959,7.18,1111122 
DISL,ioos:station:DISL:DISL:1,2010-10-01T05:00:00Z,30.2513,-88.0778,7.02,7.1,1111122 
DISL,ioos:station:DISL:DISL:1,2010-10-01T05:30:00Z,30.2513,-88.0778,7.09,6.75,1111122 
DISL,ioos:station:DISL:DISL:1,2010-10-01T06:00:00Z,30.2513,-88.0778,7.18,6.5,1111122 
DISL,ioos:station:DISL:DISL:1,2010-10-01T06:30:00Z,30.2513,-88.0778,7.19,6.3,1111122 
DISL,ioos:station:DISL:DISL:1,2010-10-01T07:00:00Z,30.2513,-88.0778,7.25,6.55,1111122 
DISL,ioos:station:DISL:DISL:1,2010-10-01T07:30:00Z,30.2513,-88.0778,7.24,6.89,1111122 
DISL,ioos:station:DISL:DISL:1,2010-10-01T08:00:00Z,30.2513,-88.0778,7.33,7.13,1111122 
DISL,ioos:station:DISL:DISL:1,2010-10-01T08:30:00Z,30.2513,-88.0778,7.28,7.09,1111122 
DISL,ioos:station:DISL:DISL:1,2010-10-01T09:00:00Z,30.2513,-88.0778,7.3,6.94,1111122 
DISL,ioos:station:DISL:DISL:1,2010-10-01T09:30:00Z,30.2513,-88.0778,7.25,6.98,1111122 
DISL,ioos:station:DISL:DISL:1,2010-10-01T10:00:00Z,30.2513,-88.0778,7.2,6.96,1111122 
DISL,ioos:station:DISL:DISL:1,2010-10-01T10:30:00Z,30.2513,-88.0778,7.19,6.88,1111122 
DISL,ioos:station:DISL:DISL:1,2010-10-01T11:00:00Z,30.2513,-88.0778,7.13,6.9,1111122 
DISL,ioos:station:DISL:DISL:1,2010-10-01T11:30:00Z,30.2513,-88.0778,7.1,6.88,1111122 
DISL,ioos:station:DISL:DISL:1,2010-10-01T12:00:00Z,30.2513,-88.0778,6.907,6.93,1111122 
DISL,ioos:station:DISL:DISL:1,2010-10-01T12:30:00Z,30.2513,-88.0778,6.963,6.93,1111122 
DISL,ioos:station:DISL:DISL:1,2010-10-01T13:00:00Z,30.2513,-88.0778,6.836,7.0,1111122 
DISL,ioos:station:DISL:DISL:1,2010-10-01T13:30:00Z,30.2513,-88.0778,7.03,7.34,1111122 
DISL,ioos:station:DISL:DISL:1,2010-10-01T14:00:00Z,30.2513,-88.0778,6.49,7.58,1111122 
DISL,ioos:station:DISL:DISL:1,2010-10-01T14:30:00Z,30.2513,-88.0778,6.547,7.65,1111122 
DISL,ioos:station:DISL:DISL:1,2010-10-01T15:00:00Z,30.2513,-88.0778,6.317,7.7,1111122 
DISL,ioos:station:DISL:DISL:1,2010-10-01T15:30:00Z,30.2513,-88.0778,6.382,7.62,1111122 
DISL,ioos:station:DISL:DISL:1,2010-10-01T16:00:00Z,30.2513,-88.0778,6.156,7.38,1111122 
DISL,ioos:station:DISL:DISL:1,2010-10-01T16:30:00Z,30.2513,-88.0778,6.056,7.38,1111122 
DISL,ioos:station:DISL:DISL:1,2010-10-01T17:00:00Z,30.2513,-88.0778,5.963,7.43,1111122 
DISL,ioos:station:DISL:DISL:1,2010-10-01T17:30:00Z,30.2513,-88.0778,5.888,7.5,1111122 
DISL,ioos:station:DISL:DISL:1,2010-10-01T18:00:00Z,30.2513,-88.0778,5.968,7.68,1111122 
DISL,ioos:station:DISL:DISL:1,2010-10-01T18:30:00Z,30.2513,-88.0778,5.726,7.78,1111122 
DISL,ioos:station:DISL:DISL:1,2010-10-01T19:00:00Z,30.2513,-88.0778,5.76,7.79,1111122 
DISL,ioos:station:DISL:DISL:1,2010-10-01T19:30:00Z,30.2513,-88.0778,5.703,7.63,1111122 
DISL,ioos:station:DISL:DISL:1,2010-10-01T20:00:00Z,30.2513,-88.0778,5.716,7.96,1111122 
DISL,ioos:station:DISL:DISL:1,2010-10-01T20:30:00Z,30.2513,-88.0778,5.707,8.12,1111122 
DISL,ioos:station:DISL:DISL:1,2010-10-01T21:00:00Z,30.2513,-88.0778,5.724,8.18,1111122 
DISL,ioos:station:DISL:DISL:1,2010-10-01T21:30:00Z,30.2513,-88.0778,5.685,7.96,1111122 
DISL,ioos:station:DISL:DISL:1,2010-10-01T22:00:00Z,30.2513,-88.0778,5.724,8.23,1111122 
DISL,ioos:station:DISL:DISL:1,2010-10-01T22:30:00Z,30.2513,-88.0778,5.708,8.07,1111122 
DISL,ioos:station:DISL:DISL:1,2010-10-01T23:00:00Z,30.2513,-88.0778,5.759,7.72,1111122 
DISL,ioos:station:DISL:DISL:1,2010-10-01T23:30:00Z,30.2513,-88.0778,5.802,7.83,1111122 
DISL,ioos:station:DISL:DISL:1,2010-10-02T00:00:00Z,30.2513,-88.0778,5.831,6.93,1111122 
DISL,ioos:station:DISL:DISL:1,2010-10-02T00:30:00Z,30.2513,-88.0778,5.902,6.63,1111122 
DISL,ioos:station:DISL:DISL:1,2010-10-02T01:00:00Z,30.2513,-88.0778,5.969,6.56,1111122 
DISL,ioos:station:DISL:DISL:1,2010-10-02T01:30:00Z,30.2513,-88.0778,6.046,7.03,1111122 
DISL,ioos:station:DISL:DISL:1,2010-10-02T02:00:00Z,30.2513,-88.0778,6.14,7.38,1111122 
DISL,ioos:station:DISL:DISL:1,2010-10-02T02:30:00Z,30.2513,-88.0778,6.242,7.51,1111122 
DISL,ioos:station:DISL:DISL:1,2010-10-02T03:00:00Z,30.2513,-88.0778,6.378,7.31,1111122 
DISL,ioos:station:DISL:DISL:1,2010-10-02T03:30:00Z,30.2513,-88.0778,6.496,7.19,1111122 
DISL,ioos:station:DISL:DISL:1,2010-10-02T04:00:00Z,30.2513,-88.0778,6.503,7.21,1111122 
DISL,ioos:station:DISL:DISL:1,2010-10-02T04:30:00Z,30.2513,-88.0778,6.574,7.11,1111122 
DISL,ioos:station:DISL:DISL:1,2010-10-02T05:00:00Z,30.2513,-88.0778,6.629,7.1,1111122 
DISL,ioos:station:DISL:DISL:1,2010-10-02T05:30:00Z,30.2513,-88.0778,6.712,7.06,1111122 
DISL,ioos:station:DISL:DISL:1,2010-10-02T06:00:00Z,30.2513,-88.0778,6.764,6.99,1111122 
DISL,ioos:station:DISL:DISL:1,2010-10-02T06:30:00Z,30.2513,-88.0778,6.821,6.74,1111122 
DISL,ioos:station:DISL:DISL:1,2010-10-02T07:00:00Z,30.2513,-88.0778,6.844,6.47,1111122 
DISL,ioos:station:DISL:DISL:1,2010-10-02T07:30:00Z,30.2513,-88.0778,6.896,5.87,1111122 
DISL,ioos:station:DISL:DISL:1,2010-10-02T08:00:00Z,30.2513,-88.0778,6.94,5.77,1111122 
DISL,ioos:station:DISL:DISL:1,2010-10-02T08:30:00Z,30.2513,-88.0778,7.04,5.86,1111122 
DISL,ioos:station:DISL:DISL:1,2010-10-02T09:00:00Z,30.2513,-88.0778,7.07,6.17,1111122 
DISL,ioos:station:DISL:DISL:1,2010-10-02T09:30:00Z,30.2513,-88.0778,7.09,6.63,1111122 
DISL,ioos:station:DISL:DISL:1,2010-10-02T10:00:00Z,30.2513,-88.0778,7.11,6.67,1111122 
DISL,ioos:station:DISL:DISL:1,2010-10-02T10:30:00Z,30.2513,-88.0778,7.2,6.81,1111122 
DISL,ioos:station:DISL:DISL:1,2010-10-02T11:00:00Z,30.2513,-88.0778,7.23,6.77,1111122 
DISL,ioos:station:DISL:DISL:1,2010-10-02T11:30:00Z,30.2513,-88.0778,7.18,6.82,1111122 
DISL,ioos:station:DISL:DISL:1,2010-10-02T12:00:00Z,30.2513,-88.0778,7.12,6.7,1111122 
DISL,ioos:station:DISL:DISL:1,2010-10-02T12:30:00Z,30.2513,-88.0778,7.07,6.77,1111122 
DISL,ioos:station:DISL:DISL:1,2010-10-02T13:00:00Z,30.2513,-88.0778,7.05,6.84,1111122 
DISL,ioos:station:DISL:DISL:1,2010-10-02T13:30:00Z,30.2513,-88.0778,6.945,6.86,1111122 
DISL,ioos:station:DISL:DISL:1,2010-10-02T14:00:00Z,30.2513,-88.0778,6.865,6.93,1111122 
DISL,ioos:station:DISL:DISL:1,2010-10-02T14:30:00Z,30.2513,-88.0778,6.799,7.02,1111122 
DISL,ioos:station:DISL:DISL:1,2010-10-02T15:00:00Z,30.2513,-88.0778,6.666,7.54,1111122 
DISL,ioos:station:DISL:DISL:1,2010-10-02T15:30:00Z,30.2513,-88.0778,6.595,7.6,1111122 
DISL,ioos:station:DISL:DISL:1,2010-10-02T16:00:00Z,30.2513,-88.0778,6.359,7.48,1111122 
DISL,ioos:station:DISL:DISL:1,2010-10-02T16:30:00Z,30.2513,-88.0778,6.401,7.55,1111122 
DISL,ioos:station:DISL:DISL:1,2010-10-02T17:00:00Z,30.2513,-88.0778,6.332,7.7,1111122 
DISL,ioos:station:DISL:DISL:1,2010-10-02T17:30:00Z,30.2513,-88.0778,6.238,7.82,1111122 
DISL,ioos:station:DISL:DISL:1,2010-10-02T18:00:00Z,30.2513,-88.0778,6.18,7.89,1111122 
DISL,ioos:station:DISL:DISL:1,2010-10-02T18:30:00Z,30.2513,-88.0778,6.12,7.89,1111122 
DISL,ioos:station:DISL:DISL:1,2010-10-02T19:00:00Z,30.2513,-88.0778,6.065,7.96,1111122 
DISL,ioos:station:DISL:DISL:1,2010-10-02T19:30:00Z,30.2513,-88.0778,5.987,8.18,1111122 
DISL,ioos:station:DISL:DISL:1,2010-10-02T20:00:00Z,30.2513,-88.0778,5.941,8.28,1111122 
DISL,ioos:station:DISL:DISL:1,2010-10-02T20:30:00Z,30.2513,-88.0778,5.861,8.34,1111122 
DISL,ioos:station:DISL:DISL:1,2010-10-02T21:00:00Z,30.2513,-88.0778,5.82,8.36,1111122 
DISL,ioos:station:DISL:DISL:1,2010-10-02T21:30:00Z,30.2513,-88.0778,5.816,8.2,1111122 
DISL,ioos:station:DISL:DISL:1,2010-10-02T22:00:00Z,30.2513,-88.0778,5.778,8.39,1111122 
DISL,ioos:station:DISL:DISL:1,2010-10-02T22:30:00Z,30.2513,-88.0778,5.8,8.18,1111122 
DISL,ioos:station:DISL:DISL:1,2010-10-02T23:00:00Z,30.2513,-88.0778,5.819,8.4,1111122 
DISL,ioos:station:DISL:DISL:1,2010-10-02T23:30:00Z,30.2513,-88.0778,5.909,8.23,1111122 
DISL,ioos:station:DISL:DISL:1,2010-10-03T00:00:00Z,30.2513,-88.0778,5.847,8.08,1111122 
DISL,ioos:station:DISL:DISL:1,2010-10-03T00:30:00Z,30.2513,-88.0778,5.894,7.8,1111122 
DISL,ioos:station:DISL:DISL:1,2010-10-03T01:00:00Z,30.2513,-88.0778,5.89,7.57,1111122 
DISL,ioos:station:DISL:DISL:1,2010-10-03T01:30:00Z,30.2513,-88.0778,5.977,7.48,1111122 
DISL,ioos:station:DISL:DISL:1,2010-10-03T02:00:00Z,30.2513,-88.0778,5.952,7.69,1111122 
DISL,ioos:station:DISL:DISL:1,2010-10-03T02:30:00Z,30.2513,-88.0778,5.984,7.6,1111122 
DISL,ioos:station:DISL:DISL:1,2010-10-03T03:00:00Z,30.2513,-88.0778,6.068,7.66,1111122 
DISL,ioos:station:DISL:DISL:1,2010-10-03T03:30:00Z,30.2513,-88.0778,6.142,7.37,1111122 
DISL,ioos:station:DISL:DISL:1,2010-10-03T04:00:00Z,30.2513,-88.0778,6.272,7.43,1111122 
DISL,ioos:station:DISL:DISL:1,2010-10-03T04:30:00Z,30.2513,-88.0778,6.288,7.4,1111122 
DISL,ioos:station:DISL:DISL:1,2010-10-03T05:00:00Z,30.2513,-88.0778,6.319,7.2,1111122 
DISL,ioos:station:DISL:DISL:1,2010-10-03T05:30:00Z,30.2513,-88.0778,6.437,7.18,1111122 
DISL,ioos:station:DISL:DISL:1,2010-10-03T06:00:00Z,30.2513,-88.0778,6.479,7.17,1111122 
DISL,ioos:station:DISL:DISL:1,2010-10-03T06:30:00Z,30.2513,-88.0778,6.921,7.18,1111122 
DISL,ioos:station:DISL:DISL:1,2010-10-03T07:00:00Z,30.2513,-88.0778,6.88,7.22,1111122 
DISL,ioos:station:DISL:DISL:1,2010-10-03T07:30:00Z,30.2513,-88.0778,6.723,7.43,1111122 
DISL,ioos:station:DISL:DISL:1,2010-10-03T08:00:00Z,30.2513,-88.0778,6.695,7.56,1111122 
DISL,ioos:station:DISL:DISL:1,2010-10-03T08:30:00Z,30.2513,-88.0778,6.636,7.6,1111122 
DISL,ioos:station:DISL:DISL:1,2010-10-03T09:00:00Z,30.2513,-88.0778,6.69,7.6,1111122 
DISL,ioos:station:DISL:DISL:1,2010-10-03T09:30:00Z,30.2513,-88.0778,6.756,7.54,1111122 
DISL,ioos:station:DISL:DISL:1,2010-10-03T10:00:00Z,30.2513,-88.0778,6.764,7.5,1111122 
DISL,ioos:station:DISL:DISL:1,2010-10-03T10:30:00Z,30.2513,-88.0778,6.756,7.41,1111122 
DISL,ioos:station:DISL:DISL:1,2010-10-03T11:00:00Z,30.2513,-88.0778,6.557,7.46,1111122 
DISL,ioos:station:DISL:DISL:1,2010-10-03T11:30:00Z,30.2513,-88.0778,7.17,7.43,1111122 
DISL,ioos:station:DISL:DISL:1,2010-10-03T12:00:00Z,30.2513,-88.0778,6.93,7.66,1111122 
DISL,ioos:station:DISL:DISL:1,2010-10-03T12:30:00Z,30.2513,-88.0778,7.13,7.72,1111122 
DISL,ioos:station:DISL:DISL:1,2010-10-03T13:00:00Z,30.2513,-88.0778,6.212,7.81,1111122 
DISL,ioos:station:DISL:DISL:1,2010-10-03T13:30:00Z,30.2513,-88.0778,6.694,7.89,1111122 
DISL,ioos:station:DISL:DISL:1,2010-10-03T14:00:00Z,30.2513,-88.0778,6.605,7.77,1111122 
DISL,ioos:station:DISL:DISL:1,2010-10-03T14:30:00Z,30.2513,-88.0778,6.409,7.93,1111122 
DISL,ioos:station:DISL:DISL:1,2010-10-03T15:00:00Z,30.2513,-88.0778,6.389,7.92,1111122 
DISL,ioos:station:DISL:DISL:1,2010-10-03T15:30:00Z,30.2513,-88.0778,6.006,7.78,1111122 
DISL,ioos:station:DISL:DISL:1,2010-10-03T16:00:00Z,30.2513,-88.0778,6.356,7.78,1111122 
DISL,ioos:station:DISL:DISL:1,2010-10-03T16:30:00Z,30.2513,-88.0778,6.395,7.68,1111122 
DISL,ioos:station:DISL:DISL:1,2010-10-03T17:00:00Z,30.2513,-88.0778,6.141,7.67,1111122 
DISL,ioos:station:DISL:DISL:1,2010-10-03T17:30:00Z,30.2513,-88.0778,6.329,7.57,1111122 
DISL,ioos:station:DISL:DISL:1,2010-10-03T18:00:00Z,30.2513,-88.0778,5.874,7.57,1111122 
DISL,ioos:station:DISL:DISL:1,2010-10-03T18:30:00Z,30.2513,-88.0778,5.897,7.65,1111122 
DISL,ioos:station:DISL:DISL:1,2010-10-03T19:00:00Z,30.2513,-88.0778,5.84,7.94,1111122 
DISL,ioos:station:DISL:DISL:1,2010-10-03T19:30:00Z,30.2513,-88.0778,5.877,7.84,1111122 
DISL,ioos:station:DISL:DISL:1,2010-10-03T20:00:00Z,30.2513,-88.0778,5.92,8.27,1111122 
DISL,ioos:station:DISL:DISL:1,2010-10-03T20:30:00Z,30.2513,-88.0778,6.118,8.6,1111122 
DISL,ioos:station:DISL:DISL:1,2010-10-03T21:00:00Z,30.2513,-88.0778,5.796,7.88,1111122 
DISL,ioos:station:DISL:DISL:1,2010-10-03T21:30:00Z,30.2513,-88.0778,5.514,7.8,1111122 
DISL,ioos:station:DISL:DISL:1,2010-10-03T22:00:00Z,30.2513,-88.0778,5.816,7.81,1111122 
DISL,ioos:station:DISL:DISL:1,2010-10-03T22:30:00Z,30.2513,-88.0778,5.756,8.34,1111122 
DISL,ioos:station:DISL:DISL:1,2010-10-03T23:00:00Z,30.2513,-88.0778,5.852,7.81,1111122 
DISL,ioos:station:DISL:DISL:1,2010-10-03T23:30:00Z,30.2513,-88.0778,5.918,7.64,1111122 
DISL,ioos:station:DISL:DISL:1,2010-10-04T00:00:00Z,30.2513,-88.0778,6.289,7.56,1111122 
DISL,ioos:station:DISL:DISL:1,2010-10-04T00:30:00Z,30.2513,-88.0778,5.903,7.5,1111122 
DISL,ioos:station:DISL:DISL:1,2010-10-04T01:00:00Z,30.2513,-88.0778,5.675,7.49,1111122 
DISL,ioos:station:DISL:DISL:1,2010-10-04T01:30:00Z,30.2513,-88.0778,5.759,7.51,1111122 
DISL,ioos:station:DISL:DISL:1,2010-10-04T02:00:00Z,30.2513,-88.0778,5.714,7.51,1111122 
DISL,ioos:station:DISL:DISL:1,2010-10-04T02:30:00Z,30.2513,-88.0778,5.968,7.64,1111122 
DISL,ioos:station:DISL:DISL:1,2010-10-04T03:00:00Z,30.2513,-88.0778,5.858,7.87,1111122 
DISL,ioos:station:DISL:DISL:1,2010-10-04T03:30:00Z,30.2513,-88.0778,5.907,7.69,1111122 
DISL,ioos:station:DISL:DISL:1,2010-10-04T04:00:00Z,30.2513,-88.0778,6.041,7.57,1111122 
DISL,ioos:station:DISL:DISL:1,2010-10-04T04:30:00Z,30.2513,-88.0778,5.597,7.53,1111122 
DISL,ioos:station:DISL:DISL:1,2010-10-04T05:00:00Z,30.2513,-88.0778,5.85,7.48,1111122 
DISL,ioos:station:DISL:DISL:1,2010-10-04T05:30:00Z,30.2513,-88.0778,5.929,7.84,1111122 
DISL,ioos:station:DISL:DISL:1,2010-10-04T06:00:00Z,30.2513,-88.0778,6.199,8.09,1111122 
DISL,ioos:station:DISL:DISL:1,2010-10-04T06:30:00Z,30.2513,-88.0778,6.05,7.77,1111122 
DISL,ioos:station:DISL:DISL:1,2010-10-04T07:00:00Z,30.2513,-88.0778,6.149,7.7,1111122 
DISL,ioos:station:DISL:DISL:1,2010-10-04T07:30:00Z,30.2513,-88.0778,5.845,7.68,1111122 
DISL,ioos:station:DISL:DISL:1,2010-10-04T08:00:00Z,30.2513,-88.0778,6.225,7.77,1111122 
DISL,ioos:station:DISL:DISL:1,2010-10-04T08:30:00Z,30.2513,-88.0778,6.027,7.75,1111122 
DISL,ioos:station:DISL:DISL:1,2010-10-04T09:00:00Z,30.2513,-88.0778,6.038,7.72,1111122 
DISL,ioos:station:DISL:DISL:1,2010-10-04T09:30:00Z,30.2513,-88.0778,6.116,7.68,1111122 
DISL,ioos:station:DISL:DISL:1,2010-10-04T10:00:00Z,30.2513,-88.0778,6.31,7.54,1111122 
DISL,ioos:station:DISL:DISL:1,2010-10-04T10:30:00Z,30.2513,-88.0778,6.358,7.5,1111122 
DISL,ioos:station:DISL:DISL:1,2010-10-04T11:00:00Z,30.2513,-88.0778,6.536,7.56,1111122 
DISL,ioos:station:DISL:DISL:1,2010-10-04T11:30:00Z,30.2513,-88.0778,6.526,7.57,1111122 
DISL,ioos:station:DISL:DISL:1,2010-10-04T12:00:00Z,30.2513,-88.0778,6.472,7.64,1111122 
DISL,ioos:station:DISL:DISL:1,2010-10-04T12:30:00Z,30.2513,-88.0778,6.348,7.64,1111122 
DISL,ioos:station:DISL:DISL:1,2010-10-04T13:00:00Z,30.2513,-88.0778,6.432,7.71,1111122 
DISL,ioos:station:DISL:DISL:1,2010-10-04T13:30:00Z,30.2513,-88.0778,6.678,7.81,1111122 
DISL,ioos:station:DISL:DISL:1,2010-10-04T14:00:00Z,30.2513,-88.0778,7.04,7.9,1111122 
DISL,ioos:station:DISL:DISL:1,2010-10-04T14:30:00Z,30.2513,-88.0778,6.228,8.0,1111122 
DISL,ioos:station:DISL:DISL:1,2010-10-04T15:00:00Z,30.2513,-88.0778,6.203,8.11,1111122 
DISL,ioos:station:DISL:DISL:1,2010-10-04T15:30:00Z,30.2513,-88.0778,6.625,8.17,1111122 
DISL,ioos:station:DISL:DISL:1,2010-10-04T16:00:00Z,30.2513,-88.0778,6.55,8.29,1111122 
DISL,ioos:station:DISL:DISL:1,2010-10-04T16:30:00Z,30.2513,-88.0778,6.49,8.36,1111122 
DISL,ioos:station:DISL:DISL:1,2010-10-04T17:00:00Z,30.2513,-88.0778,6.395,8.44,1111122 
DISL,ioos:station:DISL:DISL:1,2010-10-04T17:30:00Z,30.2513,-88.0778,6.38,8.45,1111122 
DISL,ioos:station:DISL:DISL:1,2010-10-04T18:00:00Z,30.2513,-88.0778,6.322,8.75,1111122 
DISL,ioos:station:DISL:DISL:1,2010-10-04T18:30:00Z,30.2513,-88.0778,6.131,8.57,1111122 
DISL,ioos:station:DISL:DISL:1,2010-10-04T19:00:00Z,30.2513,-88.0778,6.318,8.46,1111122 
DISL,ioos:station:DISL:DISL:1,2010-10-04T19:30:00Z,30.2513,-88.0778,6.168,8.22,1111122 
DISL,ioos:station:DISL:DISL:1,2010-10-04T20:00:00Z,30.2513,-88.0778,5.967,8.25,1111122 
DISL,ioos:station:DISL:DISL:1,2010-10-04T20:30:00Z,30.2513,-88.0778,5.864,8.14,1111122 
DISL,ioos:station:DISL:DISL:1,2010-10-04T21:00:00Z,30.2513,-88.0778,5.837,8.02,1111122 
DISL,ioos:station:DISL:DISL:1,2010-10-04T21:30:00Z,30.2513,-88.0778,5.669,7.99,1111122 
DISL,ioos:station:DISL:DISL:1,2010-10-04T22:00:00Z,30.2513,-88.0778,5.819,7.96,1111122 
DISL,ioos:station:DISL:DISL:1,2010-10-04T22:30:00Z,30.2513,-88.0778,5.751,8.02,1111122 
DISL,ioos:station:DISL:DISL:1,2010-10-04T23:00:00Z,30.2513,-88.0778,5.625,8.08,1111122 
DISL,ioos:station:DISL:DISL:1,2010-10-04T23:30:00Z,30.2513,-88.0778,5.843,8.05,1111122 
DISL,ioos:station:DISL:DISL:1,2010-10-05T00:00:00Z,30.2513,-88.0778,5.632,8.02,1111122 
DISL,ioos:station:DISL:DISL:1,2010-10-05T00:30:00Z,30.2513,-88.0778,5.736,8.0,1111122 
DISL,ioos:station:DISL:DISL:1,2010-10-05T01:00:00Z,30.2513,-88.0778,5.579,8.2,1111122 
DISL,ioos:station:DISL:DISL:1,2010-10-05T01:30:00Z,30.2513,-88.0778,5.748,7.93,1111122 
DISL,ioos:station:DISL:DISL:1,2010-10-05T02:00:00Z,30.2513,-88.0778,5.598,8.11,1111122 
DISL,ioos:station:DISL:DISL:1,2010-10-05T02:30:00Z,30.2513,-88.0778,5.791,7.91,1111122 
DISL,ioos:station:DISL:DISL:1,2010-10-05T03:00:00Z,30.2513,-88.0778,5.81,8.05,1111122 
DISL,ioos:station:DISL:DISL:1,2010-10-05T03:30:00Z,30.2513,-88.0778,5.985,7.9,1111122 
DISL,ioos:station:DISL:DISL:1,2010-10-05T04:00:00Z,30.2513,-88.0778,5.993,7.92,1111122 
DISL,ioos:station:DISL:DISL:1,2010-10-05T04:30:00Z,30.2513,-88.0778,5.768,7.9,1111122 
DISL,ioos:station:DISL:DISL:1,2010-10-05T05:00:00Z,30.2513,-88.0778,5.525,7.87,1111122 
DISL,ioos:station:DISL:DISL:1,2010-10-05T05:30:00Z,30.2513,-88.0778,5.773,7.92,1111122 
DISL,ioos:station:DISL:DISL:1,2010-10-05T06:00:00Z,30.2513,-88.0778,5.881,7.95,1111122 
DISL,ioos:station:DISL:DISL:1,2010-10-05T06:30:00Z,30.2513,-88.0778,5.845,8.17,1111122 
DISL,ioos:station:DISL:DISL:1,2010-10-05T07:00:00Z,30.2513,-88.0778,5.741,8.1,1111122 
DISL,ioos:station:DISL:DISL:1,2010-10-05T07:30:00Z,30.2513,-88.0778,6.049,8.04,1111122 
DISL,ioos:station:DISL:DISL:1,2010-10-05T08:00:00Z,30.2513,-88.0778,6.059,8.08,1111122 
DISL,ioos:station:DISL:DISL:1,2010-10-05T08:30:00Z,30.2513,-88.0778,5.906,8.08,1111122 
DISL,ioos:station:DISL:DISL:1,2010-10-05T09:00:00Z,30.2513,-88.0778,5.812,8.19,1111122 
DISL,ioos:station:DISL:DISL:1,2010-10-05T09:30:00Z,30.2513,-88.0778,6.191,8.12,1111122 
DISL,ioos:station:DISL:DISL:1,2010-10-05T10:00:00Z,30.2513,-88.0778,6.103,8.09,1111122 
DISL,ioos:station:DISL:DISL:1,2010-10-05T10:30:00Z,30.2513,-88.0778,6.269,8.06,1111122 
DISL,ioos:station:DISL:DISL:1,2010-10-05T11:00:00Z,30.2513,-88.0778,6.033,8.1,1111122 
DISL,ioos:station:DISL:DISL:1,2010-10-05T11:30:00Z,30.2513,-88.0778,6.478,8.1,1111122 
DISL,ioos:station:DISL:DISL:1,2010-10-05T12:00:00Z,30.2513,-88.0778,6.22,7.37,1111122 
DISL,ioos:station:DISL:DISL:1,2010-10-05T12:30:00Z,30.2513,-88.0778,6.241,6.6,1111122 
DISL,ioos:station:DISL:DISL:1,2010-10-05T13:00:00Z,30.2513,-88.0778,6.467,6.83,1111122 
DISL,ioos:station:DISL:DISL:1,2010-10-05T13:30:00Z,30.2513,-88.0778,6.272,6.94,1111122 
DISL,ioos:station:DISL:DISL:1,2010-10-05T14:00:00Z,30.2513,-88.0778,6.69,7.19,1111122 
DISL,ioos:station:DISL:DISL:1,2010-10-05T14:30:00Z,30.2513,-88.0778,6.449,7.7,1111122 
DISL,ioos:station:DISL:DISL:1,2010-10-05T15:00:00Z,30.2513,-88.0778,6.219,8.02,1111122 
DISL,ioos:station:DISL:DISL:1,2010-10-05T15:30:00Z,30.2513,-88.0778,6.609,8.11,1111122 
DISL,ioos:station:DISL:DISL:1,2010-10-05T16:00:00Z,30.2513,-88.0778,6.473,8.22,1111122 
DISL,ioos:station:DISL:DISL:1,2010-10-05T16:30:00Z,30.2513,-88.0778,6.433,8.24,1111122 
DISL,ioos:station:DISL:DISL:1,2010-10-05T17:00:00Z,30.2513,-88.0778,6.349,8.39,1111122 
DISL,ioos:station:DISL:DISL:1,2010-10-05T17:30:00Z,30.2513,-88.0778,6.338,8.61,1111122 
DISL,ioos:station:DISL:DISL:1,2010-10-05T18:00:00Z,30.2513,-88.0778,6.294,8.7,1111122 
DISL,ioos:station:DISL:DISL:1,2010-10-05T18:30:00Z,30.2513,-88.0778,6.293,8.83,1111122 
DISL,ioos:station:DISL:DISL:1,2010-10-05T19:00:00Z,30.2513,-88.0778,6.522,8.96,1111122 
DISL,ioos:station:DISL:DISL:1,2010-10-05T19:30:00Z,30.2513,-88.0778,6.227,8.88,1111122 
DISL,ioos:station:DISL:DISL:1,2010-10-05T20:00:00Z,30.2513,-88.0778,6.148,8.94,1111122 
DISL,ioos:station:DISL:DISL:1,2010-10-05T20:30:00Z,30.2513,-88.0778,6.115,8.66,1111122 
DISL,ioos:station:DISL:DISL:1,2010-10-05T21:00:00Z,30.2513,-88.0778,6.086,8.59,1111122 
DISL,ioos:station:DISL:DISL:1,2010-10-05T21:30:00Z,30.2513,-88.0778,6.037,8.56,1111122 
DISL,ioos:station:DISL:DISL:1,2010-10-05T22:00:00Z,30.2513,-88.0778,5.977,8.62,1111122 
DISL,ioos:station:DISL:DISL:1,2010-10-05T22:30:00Z,30.2513,-88.0778,5.881,8.56,1111122 
DISL,ioos:station:DISL:DISL:1,2010-10-05T23:00:00Z,30.2513,-88.0778,5.995,8.48,1111122 
DISL,ioos:station:DISL:DISL:1,2010-10-05T23:30:00Z,30.2513,-88.0778,6.021,8.4,1111122 
DISL,ioos:station:DISL:DISL:1,2010-10-06T00:00:00Z,30.2513,-88.0778,6.02,8.38,1111122 
DISL,ioos:station:DISL:DISL:1,2010-10-06T00:30:00Z,30.2513,-88.0778,5.984,8.61,1111122 
DISL,ioos:station:DISL:DISL:1,2010-10-06T01:00:00Z,30.2513,-88.0778,5.957,8.1,1111122 
DISL,ioos:station:DISL:DISL:1,2010-10-06T01:30:00Z,30.2513,-88.0778,6.024,8.26,1111122 
DISL,ioos:station:DISL:DISL:1,2010-10-06T02:00:00Z,30.2513,-88.0778,5.955,8.19,1111122 
DISL,ioos:station:DISL:DISL:1,2010-10-06T02:30:00Z,30.2513,-88.0778,6.038,8.17,1111122 
DISL,ioos:station:DISL:DISL:1,2010-10-06T03:00:00Z,30.2513,-88.0778,6.09,8.13,1111122 
DISL,ioos:station:DISL:DISL:1,2010-10-06T03:30:00Z,30.2513,-88.0778,6.1,7.61,1111122 
DISL,ioos:station:DISL:DISL:1,2010-10-06T04:00:00Z,30.2513,-88.0778,6.154,8.18,1111122 
DISL,ioos:station:DISL:DISL:1,2010-10-06T04:30:00Z,30.2513,-88.0778,6.112,8.16,1111122 
DISL,ioos:station:DISL:DISL:1,2010-10-06T05:00:00Z,30.2513,-88.0778,6.119,8.17,1111122 
DISL,ioos:station:DISL:DISL:1,2010-10-06T05:30:00Z,30.2513,-88.0778,5.758,8.22,1111122 
DISL,ioos:station:DISL:DISL:1,2010-10-06T06:00:00Z,30.2513,-88.0778,6.09,8.21,1111122 
DISL,ioos:station:DISL:DISL:1,2010-10-06T06:30:00Z,30.2513,-88.0778,5.999,8.21,1111122 
DISL,ioos:station:DISL:DISL:1,2010-10-06T07:00:00Z,30.2513,-88.0778,6.023,8.27,1111122 
DISL,ioos:station:DISL:DISL:1,2010-10-06T07:30:00Z,30.2513,-88.0778,5.981,8.29,1111122 
DISL,ioos:station:DISL:DISL:1,2010-10-06T08:00:00Z,30.2513,-88.0778,6.008,8.28,1111122 
DISL,ioos:station:DISL:DISL:1,2010-10-06T08:30:00Z,30.2513,-88.0778,5.934,8.18,1111122 
DISL,ioos:station:DISL:DISL:1,2010-10-06T09:00:00Z,30.2513,-88.0778,5.988,8.11,1111122 
DISL,ioos:station:DISL:DISL:1,2010-10-06T09:30:00Z,30.2513,-88.0778,5.981,8.07,1111122 
DISL,ioos:station:DISL:DISL:1,2010-10-06T10:00:00Z,30.2513,-88.0778,6.036,8.13,1111122 
DISL,ioos:station:DISL:DISL:1,2010-10-06T10:30:00Z,30.2513,-88.0778,5.821,8.11,1111122 
DISL,ioos:station:DISL:DISL:1,2010-10-06T11:00:00Z,30.2513,-88.0778,6.087,7.85,1111122 
DISL,ioos:station:DISL:DISL:1,2010-10-06T11:30:00Z,30.2513,-88.0778,6.107,7.74,1111122 
DISL,ioos:station:DISL:DISL:1,2010-10-06T12:00:00Z,30.2513,-88.0778,6.109,7.67,1111122 
DISL,ioos:station:DISL:DISL:1,2010-10-06T12:30:00Z,30.2513,-88.0778,5.885,7.6,1111122 
DISL,ioos:station:DISL:DISL:1,2010-10-06T13:00:00Z,30.2513,-88.0778,6.071,7.47,1111122 
DISL,ioos:station:DISL:DISL:1,2010-10-06T13:30:00Z,30.2513,-88.0778,6.094,6.91,1111122 
DISL,ioos:station:DISL:DISL:1,2010-10-06T14:00:00Z,30.2513,-88.0778,6.157,6.09,1111122 
DISL,ioos:station:DISL:DISL:1,2010-10-06T14:30:00Z,30.2513,-88.0778,6.196,5.96,1111122 
DISL,ioos:station:DISL:DISL:1,2010-10-06T15:00:00Z,30.2513,-88.0778,6.273,6.12,1111122 
DISL,ioos:station:DISL:DISL:1,2010-10-06T15:30:00Z,30.2513,-88.0778,6.3,6.38,1111122 